This demonstration page uses our WeatherBlox Daily Observations layout. Learn more.

Left ArrowRight Arrow

Hourly Observations for May 21, 2021

Temp ( °F °C ) Dew Point ( °F °C ) Humidity (%) Winds ( mph kmh ) Pressure ( in mb ) Visibility ( mi km ) Precip ( " mm )
12:53 am 00:53 Clear 63 17.2 61 16.1 93 93 N N/A 30.33 1027 10 16 N/A
1:53 am 01:53 Clear 62 16.7 60 15.6 93 93 N N/A 30.32 1027 9 14 N/A
2:53 am 02:53 Clear 60 15.6 58 14.4 93 93 N N/A 30.33 1027 9 14 N/A
3:53 am 03:53 Clear with Mist and Fog 59 15 58 14.4 96 96 N N/A 30.34 1027 5 8 N/A
4:53 am 04:53 Clear with Mist and Fog 59 15 57 13.9 93 93 N N/A 30.35 1028 6 10 N/A
5:53 am 05:53 Clear 58 14.4 56 13.3 93 93 N N/A 30.37 1028 8 13 N/A
6:53 am 06:53 Sunny with Mist and Fog 59 15 58 14.4 96 96 N N/A 30.39 1029 6 10 N/A
7:53 am 07:53 Sunny with Mist and Fog 63 17.2 60 15.6 90 90 N N/A 30.42 1030 6 10 N/A
8:53 am 08:53 Sunny 71 21.7 61 16.1 71 71 WSW 3 6 30.44 1031 10 16 N/A
9:53 am 09:53 Sunny 74 23.3 60 15.6 62 62 VRB 3 6 30.45 1031 10 16 N/A
10:53 am 10:53 Sunny 78 25.6 59 15 52 52 WSW 7 11 30.46 1031 10 16 N/A
11:53 am 11:53 Sunny 81 27.2 58 14.4 45 45 VRB 5 7 30.45 1031 10 16 N/A
12:53 pm 12:53 Sunny 82 27.8 58 14.4 44 44 VRB 5 7 30.44 1031 10 16 N/A
1:53 pm 13:53 Sunny 84 28.9 56 13.3 38 38 VRB 3 6 30.43 1030 10 16 N/A
2:53 pm 14:53 Mostly Sunny 85 29.4 57 13.9 39 39 VRB 3 6 30.41 1030 10 16 N/A
3:53 pm 15:53 Sunny 85 29.4 56 13.3 37 37 VRB 3 6 30.40 1030 10 16 N/A
4:53 pm 16:53 Sunny 83 28.3 56 13.3 40 40 VRB 5 7 30.39 1029 10 16 N/A
5:53 pm 17:53 Sunny 83 28.3 58 14.4 43 43 VRB 6 9 30.40 1029 10 16 N/A
6:53 pm 18:53 Sunny 82 27.8 60 15.6 47 47 VRB 3 6 30.39 1029 10 16 N/A
7:53 pm 19:53 Sunny 78 25.6 62 16.7 58 58 WSW 3 6 30.39 1029 10 16 N/A
8:53 pm 20:53 Clear 70 21.1 64 17.8 82 82 N N/A 30.39 1029 10 16 N/A
9:53 pm 21:53 Clear 67 19.4 62 16.7 84 84 N N/A 30.40 1029 10 16 N/A
10:53 pm 22:53 Clear 65 18.3 62 16.7 90 90 N N/A 30.40 1029 8 13 N/A
11:53 pm 23:53 Clear 64 17.8 61 16.1 90 90 N N/A 30.39 1029 10 16 N/A

Powered by AerisWeather